Погода в Хвалынске

Погода в Хвалынске : погода сейчас, прогноз погоды и архив. Всё, что Вы хотите узнать о погоде в Хвалынске!

Поиск расширенной информации на нашем сайте:

Другие новости

Новости СМИ2

Главная страница сайта

Новости сайта

03.07.2017

Напоминаем, что на нашем специализированном сайте Метеоцентр.Азия вы можете получить высокодетализированные автоматические прогнозы погоды по пунктам России, СНГ и мира в авиационном формате (включающие направление и скорость ветра, видимость, явления погоды, количество и форму облачности, нижнюю и верхнюю границу облачности).

Рекомендуем: Подшипники роликовые в кахастане: покупка роликовых подшипников podshipnik-rti.kz.

Погода в Хвалынске - сегодня

Время (UTC), дата Ветер
(°,м/с) 
Видим.   Явления Облачность Т
(°С)
Тd
(°С)
f(%) Тe
(°С)
Pmin
(гПа)
dP
(гПа)
Po
(мм)
O2
(г/м3)
Тmin Tmax R s Состояние
почвы
21 18.09.17 170 (Ю) 22000 м    ясно 
+18.2 +11.7 66 +22  1016.2  -0.2  754  283           
00 19.09.17 150 (ЮВ) 21000 м    ясно 
+17.4 +10.5 64 +21  1015.9  -0.3  754  284           
03 19.09.17 190 (Ю) 20000 м    4/0 верхняя 
[Ci fib]
+17.7 +10.9 64 +21  1015.5  -0.4  754  283  +17.3        сухая 
06 19.09.17 160 (Ю) 20000 м    3/0 верхняя 
[Ci fib]
+23.4 +11.8 48 +27  1015.8  0.5  754  278           
09 19.09.17 200 (Ю) 7-12{13}  20000 м    ясно 
+30 +7.7 25 +30  1015.3  -0.3  754  273           
12 19.09.17 220 (ЮЗ) 7-13{14}  20000 м    4/0 верхняя 
[Ci fib]
+31.2 +3.6 17 +31  1014.5  -0.8  753  272           
15 19.09.17 190 (Ю) 4{14}  20000 м    10/0 верхняя 
[Ci fib]
+27.2 +6.2 26 +27  1014.6  753  275    +31.6       
18 19.09.17 250 (З) 3{14}  23000 м    ясно 
+25.2 +4.5 26 +25  1015.5  0.8  754  277           
21 19.09.17 120 (ЮВ) 21000 м    ясно 
+23.4 +10.9 45 +26  1016.9  1.4  755  278           
00 20.09.17 150 (ЮВ) 21000 м    ясно 
+19.8 +10.6 55 +22  1018.5  1.4  756  282           
03 20.09.17 330 (СЗ) 20000 м    ясно 
+15.2 +7.6 60 +15  1019.7  757  288  +14.8        сухая 
06 20.09.17 010 (С) 20000 м    ясно 
+18 +8.8 55 +19  1021.2  1.6  758  285           
09 20.09.17 010 (С) 20000 м    ясно 
+19.7 +10.7 56 +23  1021.2  0.1  758  283           
12 20.09.17 360 (С) 20000 м    ясно 
+20.3 +11 55 +23  1021.1  -0.1  758  282           
15 20.09.17 330 (СЗ) 20000 м    ясно 
+17.9 +8 52 +18  1021.4  0.2  758  285    +20.6       
18 20.09.17 340 (С) 22000 м    ясно 
+16.3 +9.8 65 +18  1022.6  1.1  759  287           
21 20.09.17 320 (СЗ) 21000 м    ясно 
+14.3 +9 70 +14  1023.2  0.5  759  289           
00 21.09.17 320 (СЗ) 21000 м    ясно 
+12.8 +9.4 80 +13  1023.7  0.5  760  291           
03 21.09.17 310 (СЗ) 20000 м    ясно 
+12.1 +9.2 82 +12  1024.8  761  292  +12.1        сухая 
06 21.09.17 020 (С) 20000 м    ясно 
+16 +9.9 67 +17  1025.3  0.7  761  288           
09 21.09.17 360 (С) 20000 м    ясно 
+17.9 +8.9 56 +18  1024.7  -0.5  761  286           
12 21.09.17 010 (С) 20000 м    ясно 
+18.5 +8.6 52 +19  1024.7  761  286           
15 21.09.17 360 (С) 4{11}  20000 м    ясно 
+16.6 +9.3 62 +17  1025.2  0.4  761  287    +18.5       
18 21.09.17 350 (С) 5{11}  23000 м    3/0 верхняя 
[Ci sp]
+14.8 +8.5 66 +14  1025.9  0.7  761  290           
21 21.09.17 020 (С) 6-11{11}  23000 м    ясно 
+14.1 +8.4 69 +13  1026.8  0.8  762  291           
Время (UTC), дата Ветер
(°,м/с) 
Видим.   Явления Облачность Т
(°С)
Тd
(°С)
f(%) Тe
(°С)
Pmin
(гПа)
dP
(гПа)
Po
(мм)
O2
(г/м3)
Тmin Tmax R s Состояние
почвы

Для получения пояснительной информации подведите курсор к названию столбца.

ПОГОДА в Хвалынске - архив

Всё, что Вы хотите узнать о погоде в Хвалынске - удобно и подробно!

Выберите нужную дату (начиная с 1 января 2015* года) и нажмите кнопку "Найти".
Будут отображены архивные сводки погоды по пункту Хвалынск, начиная с указанной даты.


Отображать данные в формате CSV (для использования в таблицах Excel)


Внимание! Наш архив погоды предназначен исключительно для личного некоммерческого использования в познавательных целях. Если Вам необходимы официальные справки о состоянии погоды (для производственных, юридических, коммерческих и т.п. целей), обращайтесь в органы Росгидромета.

*Примечание: данная дата относится к архиву по метеостанциям СССР (Россия, СНГ, Балтия).
Архив по метеостанциям Зарубежной Европы и Азии (кроме Китая) хранится 10 дней, по другим регионам земного шара (Китай, Африка, Америка, Австралия, Океания) - 1 день.

Хвалынск - район местоположения метеостанции


Название, широта, долгота, высота метеостанции:
Хвалынск 52.5°ш. 48.1°д. 88 м над ур. моря [Российская Федерация]

Дополнительная информация

В oтличие oт бoльшинства пoгoдных сайтoв мы публикуем пoдрoбную метеoинфoрмацию в детальнoм прoфессиoнальнoм фoрмате.

Характеристики температуры и влажнoсти вoздуха измеряются на высoте 2 м в тени вдали oт зданий и деревьев.
Скoрoсть ветра измеряется на высoте 10 м (на урoвне рoста челoвека скoрoсть ветра ниже в 1.5-2 раза). Если метеoстанция нахoдится в гoрoде или в лесу, тo скoрoсть ветра занижена на 2-4 м/с пo сравнению с oткрытым местoм. Скoрoсть ветра над акватoриями крупных рек и oзёр, а также на вершинах хoлмoв на 2-5 м/с выше, чем в oбычных услoвиях.
Атмoсфернoе давление в разных тoчках местнoсти мoжет значительнo oтличаться oт давления на метеoстанции, в зависимoсти oт услoвий рельефа (при пoдъёме на 10 м давление пoнижается примернo на 1 мм рт.ст.).